| time (UTC) | temp C | wind direction | speed KPH | gust KPH | rain 1hr cm | rain 24hr cm | rain mn cm | humidity % | barometer mb |
| 20260506222343 | 30 | 299 | 3.2 | 8.0 | 0.00 | 0.00 | 0.00 | 18 | 1011.0 |
| 20260506221330 | 29 | 260 | 4.8 | 16.1 | 0.00 | 0.00 | 0.00 | 19 | 1011.2 |
| 20260506220338 | 29 | 213 | 0.0 | 12.9 | 0.00 | 0.00 | 0.00 | 18 | 1011.2 |
| 20260506215345 | 29 | 202 | 1.6 | 12.9 | 0.00 | 0.00 | 0.00 | 18 | 1011.3 |
| 20260506214356 | 29 | 9 | 0.0 | 0.0 | 0.00 | 0.00 | 0.00 | 19 | 1011.5 |
| 20260506213343 | 28 | 218 | 0.0 | 0.0 | 0.00 | 0.00 | 0.00 | 19 | 1011.8 |
| 20260506212332 | 28 | 271 | 3.2 | 14.5 | 0.00 | 0.00 | 0.00 | 20 | 1012.1 |
| 20260506211341 | 28 | 15 | 6.4 | 14.5 | 0.00 | 0.00 | 0.00 | 19 | 1012.2 |
| 20260506210331 | 28 | 268 | 4.8 | 8.0 | 0.00 | 0.00 | 0.00 | 20 | 1012.4 |
| 20260506205340 | 28 | 154 | 9.7 | 16.1 | 0.00 | 0.00 | 0.00 | 20 | 1012.4 |
| 20260506204328 | 27 | 267 | 4.8 | 14.5 | 0.00 | 0.00 | 0.00 | 20 | 1012.6 |
| 20260506203336 | 27 | 263 | 6.4 | 11.3 | 0.00 | 0.00 | 0.00 | 21 | 1012.7 |
| 20260506202348 | 27 | 317 | 4.8 | 9.7 | 0.00 | 0.00 | 0.00 | 21 | 1012.8 |
| 20260506201334 | 27 | 196 | 4.8 | 11.3 | 0.00 | 0.00 | 0.00 | 21 | 1012.9 |
| 20260506200342 | 27 | 227 | 1.6 | 9.7 | 0.00 | 0.00 | 0.00 | 22 | 1012.9 |
| 20260506195330 | 27 | 161 | 8.0 | 17.7 | 0.00 | 0.00 | 0.00 | 21 | 1013.0 |
| 20260506194343 | 26 | 188 | 4.8 | 14.5 | 0.00 | 0.00 | 0.00 | 22 | 1013.2 |
| 20260506193332 | 26 | 79 | 4.8 | 12.9 | 0.00 | 0.00 | 0.00 | 22 | 1013.3 |
| 20260506192339 | 26 | 335 | 8.0 | 17.7 | 0.00 | 0.00 | 0.00 | 22 | 1013.4 |
| 20260506191327 | 26 | 348 | 1.6 | 14.5 | 0.00 | 0.00 | 0.00 | 23 | 1013.3 |
| 20260506190339 | 26 | 186 | 6.4 | 16.1 | 0.00 | 0.00 | 0.00 | 23 | 1013.5 |
| 20260506185406 | 26 | 277 | 3.2 | 9.7 | 0.00 | 0.00 | 0.00 | 23 | 1013.7 |
| 20260506184334 | 26 | 208 | 0.0 | 6.4 | 0.00 | 0.00 | 0.00 | 23 | 1013.8 |
| 20260506183342 | 26 | 293 | 1.6 | 14.5 | 0.00 | 0.00 | 0.00 | 23 | 1014.1 |
| 20260506182333 | 25 | 350 | 1.6 | 9.7 | 0.00 | 0.00 | 0.00 | 26 | 1014.1 |
| 20260506181401 | 25 | 248 | 1.6 | 12.9 | 0.00 | 0.00 | 0.00 | 25 | 1014.3 |
| 20260506180328 | 25 | 22 | 4.8 | 11.3 | 0.00 | 0.00 | 0.00 | 26 | 1014.3 |
| 20260506175336 | 25 | 235 | 1.6 | 11.3 | 0.00 | 0.00 | 0.00 | 26 | 1014.3 |
| 20260506174348 | 24 | 328 | 1.6 | 8.0 | 0.00 | 0.00 | 0.00 | 27 | 1014.4 |
| 20260506173335 | 23 | 327 | 4.8 | 9.7 | 0.00 | 0.00 | 0.00 | 28 | 1014.4 |
| 20260506172342 | 24 | 252 | 8.0 | 14.5 | 0.00 | 0.00 | 0.00 | 28 | 1014.4 |
| 20260506171330 | 23 | 307 | 0.0 | 4.8 | 0.00 | 0.00 | 0.00 | 28 | 1014.4 |
| 20260506170358 | 23 | 319 | 1.6 | 11.3 | 0.00 | 0.00 | 0.00 | 29 | 1014.4 |
| 20260506165328 | 23 | 271 | 1.6 | 9.7 | 0.00 | 0.00 | 0.00 | 29 | 1014.3 |
| 20260506164335 | 23 | 105 | 1.6 | 9.7 | 0.00 | 0.00 | 0.00 | 29 | 1014.3 |
| 20260506163342 | 23 | 279 | 1.6 | 11.3 | 0.00 | 0.00 | 0.00 | 30 | 1014.3 |
| 20260506162330 | 23 | 148 | 4.8 | 9.7 | 0.00 | 0.00 | 0.00 | 30 | 1014.2 |
| 20260506161343 | 23 | 202 | 3.2 | 9.7 | 0.00 | 0.00 | 0.00 | 30 | 1014.2 |
| 20260506160331 | 23 | 253 | 3.2 | 8.0 | 0.00 | 0.00 | 0.00 | 30 | 1014.2 |
| 20260506155340 | 22 | 302 | 3.2 | 6.4 | 0.00 | 0.00 | 0.00 | 31 | 1014.2 |
| 20260506154331 | 22 | 323 | 0.0 | 4.8 | 0.00 | 0.00 | 0.00 | 32 | 1014.2 |
| 20260506153340 | 22 | 32 | 1.6 | 8.0 | 0.00 | 0.00 | 0.00 | 32 | 1014.2 |
| 20260506152329 | 21 | 23 | 1.6 | 8.0 | 0.00 | 0.00 | 0.00 | 32 | 1014.2 |
| 20260506151336 | 21 | 345 | 0.0 | 8.0 | 0.00 | 0.00 | 0.00 | 34 | 1014.2 |
| 20260506150403 | 21 | 326 | 1.6 | 4.8 | 0.00 | 0.00 | 0.00 | 35 | 1014.3 |
| 20260506145333 | 20 | 337 | 1.6 | 3.2 | 0.00 | 0.00 | 0.00 | 35 | 1014.3 |
| 20260506144342 | 20 | 303 | 0.0 | 6.4 | 0.00 | 0.00 | 0.00 | 36 | 1014.2 |
| 20260506143328 | 20 | 355 | 0.0 | 0.0 | 0.00 | 0.00 | 0.00 | 37 | 1014.2 |
| 20260506142336 | 19 | 63 | 0.0 | 0.0 | 0.00 | 0.00 | 0.00 | 40 | 1014.0 |
| 20260506141328 | 18 | 67 | 0.0 | 0.0 | 0.00 | 0.00 | 0.00 | 42 | 1013.9 |
| 20260506140336 | 18 | 79 | 0.0 | 3.2 | 0.00 | 0.00 | 0.00 | 45 | 1013.8 |
| 20260506135343 | 17 | 102 | 0.0 | 0.0 | 0.00 | 0.00 | 0.00 | 48 | 1013.5 |
| 20260506134336 | 16 | 149 | 0.0 | 0.0 | 0.00 | 0.00 | 0.00 | 50 | 1013.4 |
| 20260506133403 | 15 | 148 | 0.0 | 0.0 | 0.00 | 0.00 | 0.00 | 53 | 1013.3 |
| 20260506132350 | 14 | 170 | 0.0 | 0.0 | 0.00 | 0.00 | 0.00 | 57 | 1013.3 |
| 20260506131337 | 13 | 170 | 0.0 | 0.0 | 0.00 | 0.00 | 0.00 | 56 | 1013.2 |
| 20260506130345 | 13 | 170 | 0.0 | 0.0 | 0.00 | 0.00 | 0.00 | 55 | 1013.0 |
| 20260506125337 | 13 | 246 | 0.0 | 0.0 | 0.00 | 0.00 | 0.00 | 55 | 1013.0 |
| 20260506124327 | 13 | 246 | 0.0 | 0.0 | 0.00 | 0.00 | 0.00 | 56 | 1012.9 |
| 20260506123336 | 13 | 246 | 0.0 | 1.6 | 0.00 | 0.00 | 0.00 | 57 | 1012.8 |
| 20260506122328 | 13 | 246 | 0.0 | 0.0 | 0.00 | 0.00 | 0.00 | 55 | 1012.6 |
| 20260506121335 | 13 | 246 | 0.0 | 0.0 | 0.00 | 0.00 | 0.00 | 55 | 1012.5 |
| 20260506120345 | 14 | 246 | 0.0 | 0.0 | 0.00 | 0.00 | 0.00 | 54 | 1012.5 |
| 20260506115332 | 14 | 246 | 0.0 | 0.0 | 0.00 | 0.00 | 0.00 | 53 | 1012.5 |
| 20260506114343 | 14 | 246 | 0.0 | 0.0 | 0.00 | 0.00 | 0.00 | 53 | 1012.5 |
| 20260506113330 | 14 | 246 | 0.0 | 0.0 | 0.00 | 0.00 | 0.00 | 52 | 1012.5 |
| 20260506112339 | 14 | 246 | 0.0 | 0.0 | 0.00 | 0.00 | 0.00 | 52 | 1012.4 |
| 20260506111345 | 15 | 246 | 0.0 | 0.0 | 0.00 | 0.00 | 0.00 | 52 | 1012.4 |
| 20260506110338 | 15 | 246 | 0.0 | 0.0 | 0.00 | 0.00 | 0.00 | 52 | 1012.3 |
| 20260506105326 | 15 | 246 | 0.0 | 0.0 | 0.00 | 0.00 | 0.00 | 51 | 1012.3 |
| 20260506104334 | 15 | 246 | 0.0 | 0.0 | 0.00 | 0.00 | 0.00 | 50 | 1012.2 |
| 20260506103342 | 15 | 246 | 0.0 | 0.0 | 0.00 | 0.00 | 0.00 | 49 | 1012.2 |
| 20260506102334 | 15 | 246 | 0.0 | 0.0 | 0.00 | 0.00 | 0.00 | 49 | 1012.1 |
| 20260506101341 | 16 | 246 | 0.0 | 0.0 | 0.00 | 0.00 | 0.00 | 47 | 1011.9 |
| 20260506100330 | 16 | 246 | 0.0 | 0.0 | 0.00 | 0.00 | 0.00 | 46 | 1011.9 |
| 20260506095339 | 16 | 246 | 0.0 | 0.0 | 0.00 | 0.00 | 0.00 | 46 | 1011.9 |
| 20260506094330 | 16 | 246 | 0.0 | 0.0 | 0.00 | 0.00 | 0.00 | 45 | 1011.8 |
| 20260506093338 | 16 | 230 | 0.0 | 0.0 | 0.00 | 0.00 | 0.00 | 43 | 1011.7 |
| 20260506092345 | 17 | 230 | 0.0 | 0.0 | 0.00 | 0.00 | 0.00 | 42 | 1011.7 |
| 20260506091352 | 17 | 230 | 0.0 | 0.0 | 0.00 | 0.00 | 0.00 | 42 | 1011.7 |
| 20260506090342 | 17 | 230 | 0.0 | 0.0 | 0.00 | 0.00 | 0.00 | 41 | 1011.6 |
| 20260506085330 | 17 | 230 | 0.0 | 0.0 | 0.00 | 0.00 | 0.00 | 40 | 1011.5 |
| 20260506084336 | 18 | 242 | 0.0 | 0.0 | 0.00 | 0.00 | 0.00 | 39 | 1011.4 |
| 20260506083404 | 18 | 338 | 0.0 | 1.6 | 0.00 | 0.00 | 0.00 | 39 | 1011.6 |
| 20260506082332 | 18 | 256 | 0.0 | 0.0 | 0.00 | 0.00 | 0.00 | 37 | 1011.4 |
| 20260506081343 | 18 | 256 | 0.0 | 6.4 | 0.00 | 0.00 | 0.00 | 37 | 1011.4 |
| 20260506080331 | 19 | 229 | 0.0 | 9.7 | 0.00 | 0.00 | 0.00 | 36 | 1011.4 |
| 20260506073338 | 19 | 254 | 1.6 | 4.8 | 0.00 | 0.00 | 0.00 | 35 | 1011.4 |
| 20260506072325 | 19 | 273 | 3.2 | 11.3 | 0.00 | 0.00 | 0.00 | 35 | 1011.4 |
| 20260506071334 | 20 | 270 | 3.2 | 9.7 | 0.00 | 0.00 | 0.00 | 34 | 1011.3 |
| 20260506070340 | 20 | 266 | 6.4 | 16.1 | 0.00 | 0.00 | 0.00 | 34 | 1011.2 |
| 20260506062334 | 20 | 283 | 3.2 | 11.3 | 0.00 | 0.00 | 0.00 | 33 | 1011.0 |
| 20260506061325 | 20 | 263 | 6.4 | 11.3 | 0.00 | 0.00 | 0.00 | 32 | 1011.0 |
| 20260506060333 | 20 | 273 | 1.6 | 6.4 | 0.00 | 0.00 | 0.00 | 32 | 1010.9 |
| 20260506051336 | 21 | 283 | 1.6 | 16.1 | 0.00 | 0.00 | 0.00 | 31 | 1010.7 |
| 20260506050327 | 21 | 279 | 3.2 | 14.5 | 0.00 | 0.00 | 0.00 | 31 | 1010.5 |
| 20260506044403 | 21 | 317 | 3.2 | 11.3 | 0.00 | 0.00 | 0.00 | 30 | 1010.4 |
| 20260506043330 | 21 | 265 | 6.4 | 12.9 | 0.00 | 0.00 | 0.00 | 30 | 1010.3 |
| 20260506042338 | 21 | 196 | 4.8 | 12.9 | 0.00 | 0.00 | 0.00 | 30 | 1010.3 |
| 20260506041330 | 21 | 270 | 1.6 | 14.5 | 0.00 | 0.00 | 0.00 | 29 | 1010.1 |
| 20260506040338 | 21 | 233 | 8.0 | 16.1 | 0.00 | 0.00 | 0.00 | 29 | 1010.0 |
| 20260506035327 | 21 | 226 | 0.0 | 6.4 | 0.00 | 0.00 | 0.00 | 28 | 1009.9 |
| 20260506034340 | 22 | 228 | 1.6 | 9.7 | 0.00 | 0.00 | 0.00 | 28 | 1009.8 |
| 20260506033329 | 22 | 269 | 1.6 | 17.7 | 0.00 | 0.00 | 0.00 | 27 | 1009.6 |
| 20260506032355 | 22 | 256 | 11.3 | 20.9 | 0.00 | 0.00 | 0.00 | 27 | 1009.5 |
| 20260506031343 | 22 | 257 | 6.4 | 16.1 | 0.00 | 0.00 | 0.00 | 27 | 1009.3 |
| 20260506030335 | 22 | 270 | 6.4 | 14.5 | 0.00 | 0.00 | 0.00 | 27 | 1009.2 |
| 20260506025344 | 22 | 280 | 4.8 | 19.3 | 0.00 | 0.00 | 0.00 | 26 | 1009.0 |
| 20260506024331 | 22 | 285 | 1.6 | 16.1 | 0.00 | 0.00 | 0.00 | 27 | 1009.0 |
| 20260506023338 | 22 | 268 | 3.2 | 17.7 | 0.00 | 0.00 | 0.00 | 26 | 1008.7 |
| 20260506022330 | 22 | 234 | 6.4 | 19.3 | 0.00 | 0.00 | 0.00 | 26 | 1008.7 |
| 20260506021337 | 23 | 232 | 6.4 | 20.9 | 0.00 | 0.00 | 0.00 | 25 | 1008.5 |
| 20260506020345 | 23 | 240 | 6.4 | 16.1 | 0.00 | 0.00 | 0.00 | 24 | 1008.4 |
| 20260506015333 | 23 | 295 | 3.2 | 16.1 | 0.00 | 0.00 | 0.00 | 24 | 1008.3 |
| 20260506014344 | 23 | 252 | 11.3 | 19.3 | 0.00 | 0.00 | 0.00 | 24 | 1008.1 |
| 20260506013331 | 24 | 248 | 0.0 | 14.5 | 0.00 | 0.00 | 0.00 | 25 | 1008.1 |
| 20260506012339 | 24 | 258 | 0.0 | 17.7 | 0.00 | 0.00 | 0.00 | 25 | 1008.0 |
| 20260506011347 | 24 | 182 | 4.8 | 17.7 | 0.00 | 0.00 | 0.00 | 25 | 1007.9 |
| 20260506010358 | 24 | 223 | 3.2 | 17.7 | 0.00 | 0.00 | 0.00 | 25 | 1007.9 |
| 20260506005405 | 24 | 300 | 4.8 | 24.1 | 0.00 | 0.00 | 0.00 | 25 | 1007.9 |
| 20260506004353 | 24 | 274 | 8.0 | 24.1 | 0.00 | 0.00 | 0.00 | 25 | 1007.8 |
| 20260506003340 | 24 | 263 | 11.3 | 22.5 | 0.00 | 0.00 | 0.00 | 25 | 1007.7 |
| 20260506002331 | 25 | 168 | 9.7 | 24.1 | 0.00 | 0.00 | 0.00 | 24 | 1007.6 |
| 20260506001338 | 25 | 181 | 6.4 | 19.3 | 0.00 | 0.00 | 0.00 | 24 | 1007.5 |
| 20260506000346 | 25 | 263 | 11.3 | 25.7 | 0.00 | 0.00 | 0.00 | 24 | 1007.5 |
| 20260505235333 | 25 | 240 | 3.2 | 22.5 | 0.00 | 0.00 | 0.00 | 25 | 1007.5 |
| 20260505234341 | 25 | 333 | 3.2 | 17.7 | 0.00 | 0.00 | 0.00 | 25 | 1007.4 |
| 20260505233332 | 25 | 302 | 4.8 | 25.7 | 0.00 | 0.00 | 0.00 | 26 | 1007.4 |
| 20260505232340 | 25 | 298 | 8.0 | 17.7 | 0.00 | 0.00 | 0.00 | 25 | 1007.5 |
| 20260505231328 | 24 | 222 | 6.4 | 16.1 | 0.00 | 0.00 | 0.00 | 27 | 1007.5 |
| 20260505230335 | 24 | 263 | 12.9 | 25.7 | 0.00 | 0.00 | 0.00 | 25 | 1007.6 |
| 20260505225407 | 24 | 257 | 3.2 | 20.9 | 0.00 | 0.00 | 0.00 | 27 | 1007.6 |
| 20260505224334 | 24 | 321 | 6.4 | 19.3 | 0.00 | 0.00 | 0.00 | 27 | 1007.8 |
| 20260505223403 | 25 | 315 | 6.4 | 25.7 | 0.00 | 0.00 | 0.00 | 26 | 1007.9 |